« Back
NWS Peachtree City, Ga » Text Product » GA Regional Weather Roundup


Printer-friendly Version
Current Version              Previous Versions:   1  2  3  4  5  6  7  8  9  

Regional Weather Roundup

664
ASUS42 KFFC 011303
RWRGA
WEATHER ROUNDUP FOR GEORGIA
NATIONAL WEATHER SERVICE PEACHTREE CITY GA
900 AM EDT WED OCT 01 2014

NOTE: "FAIR" INDICATES FEW OR NO CLOUDS BELOW 12,000 FEET WITH NO
SIGNIFICANT WEATHER AND/OR OBSTRUCTIONS TO VISIBILITY.

* = USE WITH CAUTION. THE STATIONS MARKED WITH AN ASTERISK MAY NOT
REPORT WEATHER SUCH AS PRECIPITATION, FOG, OR THUNDER AND ARE NOT
QUALITY CONTROLLED BY NWS.

THE REMARK "TC" DENOTES TEMPERATURE READING IN DEGREES CELSIUS.

GAZ001>058-011400-
NORTH GEORGIA

CITY           SKY/WX    TMP DP  RH WIND       PRES   REMARKS
ATLANTA        MOSUNNY   68  64  87 NW8       30.01R
ATHENS         SUNNY     65  62  90 CALM      30.01R
CHAMBLEE       SUNNY     66  62  87 CALM      30.01R
PEACHTREE CITY SUNNY     63  62  97 CALM      30.02R
ROME           SUNNY     59  57  93 CALM      30.01R FOG
WEST ATLANTA   SUNNY     64  61  90 CALM      30.01R
GAINESVILLE    SUNNY     67  61  81 NE3       30.04R
CARTERSVILLE   PTSUNNY   59  57  93 CALM      30.02R FOG


CITY           SKY/WX    TMP DP  RH WIND       PRES   REMARKS
DALTON*        FOG       57  57 100 CALM      30.02R VSB<1/4
LAWRENCEVILLE* SUNNY     63  57  82 CALM      30.01R
MARIETTA       PTSUNNY   64  62  93 CALM      30.02R
KENNESAW*      MOSUNNY   63  57  82 CALM      30.03R
$$

GAZ059>098-102>109-011400-
CENTRAL GEORGIA

CITY           SKY/WX    TMP DP  RH WIND       PRES   REMARKS
AUGUSTA-BUSH   SUNNY     64  63  96 CALM      29.99R
AUGUSTA-DANIEL MOSUNNY   67  65  93 NW5       30.01R
COLUMBUS       SUNNY     65  63  93 CALM      29.99R
MACON          SUNNY     65  64  97 CALM      29.99R
ROBINS AFB     SUNNY     65  64  99 NE2       29.99R


CITY           SKY/WX    TMP DP  RH WIND       PRES   REMARKS
LAGRANGE*      SUNNY     66  66  99 CALM      30.01R
SYLVANIA*      SUNNY     68  67  99 CALM      30.00R FOG
MILLEDGEVILLE* FOG       64  64 100 CALM      30.00R VSB<1/4
$$

GAZ099>101-110>166-011400-
SOUTH GEORGIA

CITY           SKY/WX    TMP DP  RH WIND       PRES   REMARKS
SAVANNAH       MOSUNNY   72  67  84 N5        29.98R
VALDOSTA       CLOUDY    72  69  90 NE3       29.97R
ALMA           CLOUDY    69  66  90 N5        29.98R
ST SIMONS      CLOUDY    71  67  87 N8        29.96R
FT STEWART     SUNNY     69  66  90 CALM      29.97R
ALBANY         PTSUNNY   69  67  93 NE5       30.00R
HUNTER AFB     SUNNY     72  69  88 N3        29.96R
MOODY AFB      CLOUDY    71  69  92 NE2       29.97R
BRUNSWICK      CLOUDY    72  68  88 CALM      29.97R


CITY           SKY/WX    TMP DP  RH WIND       PRES   REMARKS
BAINBRIDGE*    CLOUDY    72  70  94 NE3       29.98R
MOULTRIE*      CLOUDY    70  68  94 N3        29.98R
VIDALIA*       SUNNY     70  68  94 N5        29.99S
WAYCROSS*      CLOUDY    73  72  97 CALM      29.97R
DOUGLAS*       CLOUDY    72  66  83 NE5       30.00R
$$



USA.gov is the U.S. government's official web portal to all federal, state and local government web resources and services.